Home > Weather > Greenville > Past weeks

Flag for USA Weather for the Past 2 Weeks in Greenville, South Carolina, USA

Now
75 °F

Sunny.


Feels Like: 77 °F
Forecast: 62 / 80 °F
Wind: 10 mph from Southwest

Location: Greenville Downtown Airport

Current Time: May 2, 2016 at 10:00:55 PM

Latest Report: May 2, 2016 at 8:53 PM


Visibility: 10 mi

Pressure: 29.89 "Hg

Humidity: 64%

Dew Point: 62 °F

Location of GreenvilleLocation

Historic Weather in Greenville — Graph

°F

Greenville Temperature Yesterday

Maximum temperature yesterday: 81 °F (at 3:53 PM)
Minimum temperature yesterday: 64 °F (at 12:00 AM)
Average temperature yesterday: 71 °F

High & Low Weather Summary for the Past Weeks

 TemperatureHumidityPressure
High86 °F (Apr 19, 1:53 PM)96% (May 2, 8:02 AM)30.36 "Hg (May 2, 8:02 AM)
Low47 °F (Apr 18, 6:53 AM)15% (Apr 18, 3:53 PM)29.79 "Hg (Apr 27, 6:53 PM)
Average71 °F57%30.01 "Hg
* Reported Apr 17 7:53 PM — May 2 7:53 PM, Greenville, Weather by CustomWeather, © 2016

Note: Actual official high and low records may vary slightly from our data, if they occured in-between our weather recording intervals... More about our weather records

Advertising

Greenville Weather History for the Previous 24 Hours

Scroll right to see more
 ConditionsComfort  
Time TempWeatherWind HumidityBarometerVisibility
7:53 PM
Mon, May 2
76 °FSunny.10 mph67%29.86 "Hg10 mi
6:53 PM79 °FScattered clouds.9 mph58%29.86 "Hg10 mi
5:53 PM81 °FBroken clouds.8 mph56%29.88 "Hg10 mi
4:53 PM84 °FSunny.15 mph45%29.88 "Hg10 mi
3:53 PM85 °FPassing clouds.14 mph46%29.90 "Hg10 mi
2:53 PM83 °FPassing clouds.17 mph46%29.93 "Hg10 mi
1:53 PM82 °FBroken clouds.14 mph56%29.96 "Hg10 mi
12:53 PM79 °FPassing clouds.13 mph62%29.98 "Hg10 mi
11:53 AM78 °FScattered clouds.8 mph69%30.00 "Hg10 mi
10:53 AM75 °FPartly sunny.5 mph74%30.01 "Hg10 mi
9:53 AM72 °FLow clouds.6 mph84%30.02 "Hg10 mi
8:53 AM69 °FFog.No wind90%30.03 "Hg6 mi
8:02 AM68 °FFog.3 mph96%30.05 "Hg3 mi
7:53 AM68 °FFog.3 mph93%30.01 "Hg3 mi
6:53 AM67 °FFog.5 mph93%30.01 "Hg3 mi
5:53 AM66 °FClear.5 mph93%29.99 "Hg8 mi
5:00 AM67 °FPassing clouds.6 mph93%30.02 "Hg9 mi
3:53 AM68 °FPassing clouds.6 mph90%29.98 "Hg8 mi
2:53 AM67 °FClear.No wind90%29.98 "Hg10 mi
1:53 AM67 °FPassing clouds.5 mph90%29.99 "Hg10 mi
12:53 AM67 °FPassing clouds.8 mph90%29.99 "Hg10 mi
11:53 PM
Sun, May 1
69 °FThundershowers. Passing clouds.No wind87%29.99 "Hg10 mi
10:53 PM72 °FThundershowers. Mostly cloudy.6 mph84%30.01 "Hg10 mi
Weather by CustomWeather, © 2016

See weather overviewHow to use our weather pages